Погода в Тернополе

Погода в Тернополе : погода сейчас, прогноз погоды и архив. Всё, что Вы хотите узнать о погоде в Тернополе!

Хотите узнать прогноз погоды в Тернополе? Тогда Вам сюда: Погода в Тернополе

Поиск расширенной информации на нашем сайте:

Полезная информация:

Другие новости

Новости СМИ2

Главная страница сайта

Новости сайта

03.07.2017

Напоминаем, что на нашем специализированном сайте Метеоцентр.Азия вы можете получить высокодетализированные автоматические прогнозы погоды по пунктам России, СНГ и мира в авиационном формате (включающие направление и скорость ветра, видимость, явления погоды, количество и форму облачности, нижнюю и верхнюю границу облачности).

Рекомендуем:

Погода в Тернополе - сегодня

Время (UTC), дата Ветер
(°,м/с) 
Видим.   Явления Облачность Т
(°С)
Тd
(°С)
f(%) Тe
(°С)
Pmin
(гПа)
dP
(гПа)
Po
(мм)
O2
(г/м3)
Тmin Tmax R s Состояние
почвы
03 22.05.19 150 (ЮВ) 10 км  {ливн. осадки}  8/4 1000 м кучево-дожд., средняя 
[Cb cap|Ac trans]
+11.4 +10.4 94 +13  1007.9  -0.8  727  279           
06 22.05.19 170 (Ю) 20000 м  {ливн. осадки}  8/5 1000 м средняя, верхняя 
[Sc|Ac trans|Ci]
+14.5 +10.8 78 +17  1008  0.5  727  276  +11.3       
09 22.05.19 210 (ЮЗ) 20000 м    8/3 600 м средняя, верхняя 
[Cu hum|Ac cuf|Ci sp]
+18.8 +8.8 52 +19  1007.6  0.1  727  273           
12 22.05.19 200 (Ю) 20000 м    9/6 1000 м кучево-дожд., средняя 
[Cb cap|Ac cuf]
+19.7 +9.1 50 +21  1007.4  727  272           
15 22.05.19 230 (ЮЗ) 20000 м  {ливн. осадки}  8/3 1000 м кучево-дожд., средняя, верхняя 
[Cb cap|Ac cuf|Ci sp]
+18.6 +10.8 60 +22  1007.6  727  272           
18 22.05.19 220 (ЮЗ) 20000 м  {ливн. осадки}  4/0 средняя, верхняя 
[Ac cuf|Ci sp]
+15.7 +12.1 79 +21  1007.5  -0.4  727  275    +20.6  0.0     
21 22.05.19 тихо ()   10 км    6/0 средняя, верхняя 
[Ac cuf|Ci sp]
+12 +10.5 91 +14  1008.5  0.4  727  279           
00 23.05.19 110 (В) 10 км    8/0 средняя, верхняя 
[Ac cuf|Ci sp]
+11.1 +10.3 95 +14  1008.5  -0.1  727  280           
03 23.05.19 тихо ()   10 км    8/4 1000 м средняя, верхняя 
[Sc|Ac trans|Ci sp]
+11.6 +11 96 +15  1008.4  727  279           
06 23.05.19 тихо ()   20000 м    8/6 2000 м средняя, верхняя 
[Ac As|Ci sp]
+15.6 +11.2 75 +19  1008.8  0.9  728  275  +10.5  -1.9       
09 23.05.19 220 (ЮЗ) 10 км    8/6 1000 м средняя 
[Cu hum|Ac trans]
+18.6 +9.9 57 +22  1009  0.6  728  273           
12 23.05.19 220 (ЮЗ) 10 км  в посл. час ливневой дождь  9/8 1000 м кучево-дожд., средняя 
[Cb cap|Ac trans]
+20.1 +10.9 55 +23  1008.5  -0.3  728  271      0.0     
15 23.05.19 080 (В) 10 км  гроза без осадков{ливн. осадки}  9/8 1000 м кучево-дожд., средняя 
[Cb cap|Ac trans]
+19.3 +10.6 57 +23  1008.8  0.2  728  272           
18 23.05.19 300 (СЗ) 10 км  {гроза, ливн. осадки}  9/8 1000 м кучево-дожд., средняя 
[Cb cap|Ac trans]
+15.9 +12.7 81 +22  1009.6  0.3  729  275    +20.2  0.0     
21 23.05.19 300 (СЗ) 10 км    6/0 средняя 
[Ac trans]
+9.2 +7.5 89 +9  1011.4  0.8  729  283           
00 24.05.19 310 (СЗ) 10 км    9/3 1000 м средняя 
[Sc|Ac trans]
+11.2 +10 92 +13  1010.8  -0.3  729  280           
03 24.05.19 280 (З) 4000 м  слаб. ливневой дождь  9/8 900 м кучево-дожд., средняя 
[Cb cap|Ac trans]
+13.6 +12.7 94 +19  1010.2  -0.2  729  277           
06 24.05.19 240 (ЮЗ) 10 км  {ливн. осадки}  9/8 1000 м кучево-дожд., средняя 
[Cb cap|Ac trans]
+15.8 +14.4 91 +24  1010.9  730  275  +9.1       
09 24.05.19 190 (Ю) 10 км  гроза без осадков{ливн. осадки}  9/8 700 м кучево-дожд., средняя 
[Cb cap|Ac trans]
+15.3 +13 86 +21  1011.5  0.5  730  276           
12 24.05.19 310 (СЗ) 10 км  в посл. час гроза{ливн. осадки}  6/3 1000 м кучево-дожд., средняя 
[Cb cap|Ac trans]
+18.4 +13.4 73 +26  1008.9  -2.1  728  272         
15 24.05.19 320 (СЗ) 10 км    9/4 1000 м кучево-дожд., средняя 
[Cb cap|Ac trans]
+19.2 +13.7 70 +27  1008.9  0.1  728  271           
18 24.05.19 350 (С) 10 км    9/3 1000 м кучево-дожд., средняя 
[Cb cap|Ac trans]
+16.3 +13.5 83 +24  1008.7  -0.6  728  274    +19.7     
21 24.05.19 320 (СЗ) 10 км    3/0 средняя, верхняя 
[Ac trans|Ci fib]
+13.2 +11.7 91 +18  1009.7  0.6  728  278           
00 25.05.19 330 (СЗ) 10 км    5/0 средняя, верхняя 
[Ac trans|Ci fib]
+13.4 +12.5 94 +19  1009.4  -0.3  728  277           
03 25.05.19 330 (СЗ) 4000 м  дымка  10/10 120 м 
[St]
+14.3 +13.9 97 +22  1009.2  728  276           
Время (UTC), дата Ветер
(°,м/с) 
Видим.   Явления Облачность Т
(°С)
Тd
(°С)
f(%) Тe
(°С)
Pmin
(гПа)
dP
(гПа)
Po
(мм)
O2
(г/м3)
Тmin Tmax R s Состояние
почвы

Для получения пояснительной информации подведите курсор к названию столбца.

ПОГОДА в Тернополе - архив

Всё, что Вы хотите узнать о погоде в Тернополе - удобно и подробно!

Выберите нужную дату (начиная с 1 января 2018* года) и нажмите кнопку "Найти".
Будут отображены архивные сводки погоды по пункту Тернополь, начиная с указанной даты.


Отображать данные в формате CSV (для использования в таблицах Excel)


Внимание! Наш архив погоды предназначен исключительно для личного некоммерческого использования в познавательных целях. Если Вам необходимы официальные справки о состоянии погоды (для производственных, юридических, коммерческих и т.п. целей), обращайтесь в органы Росгидромета.

*Примечание: данная дата относится к архиву по метеостанциям СССР (Россия, СНГ, Балтия).
Архив по метеостанциям Зарубежной Европы и Азии (кроме Китая) хранится 10 дней, по другим регионам земного шара (Китай, Африка, Америка, Австралия, Океания) - 1 день.

Тернополь - район местоположения метеостанции


Название, широта, долгота, высота метеостанции:
Тернополь 49.5°ш. 25.7°д. 329 м над ур. моря [Украина]

Дополнительная информация

В oтличие oт бoльшинства пoгoдных сайтoв мы публикуем пoдрoбную метеoинфoрмацию в детальнoм прoфессиoнальнoм фoрмате.

Характеристики температуры и влажнoсти вoздуха измеряются на высoте 2 м в тени вдали oт зданий и деревьев.
Скoрoсть ветра измеряется на высoте 10 м (на урoвне рoста челoвека скoрoсть ветра ниже в 1.5-2 раза). Если метеoстанция нахoдится в гoрoде или в лесу, тo скoрoсть ветра занижена на 2-4 м/с пo сравнению с oткрытым местoм. Скoрoсть ветра над акватoриями крупных рек и oзёр, а также на вершинах хoлмoв на 2-5 м/с выше, чем в oбычных услoвиях.
Атмoсфернoе давление в разных тoчках местнoсти мoжет значительнo oтличаться oт давления на метеoстанции, в зависимoсти oт услoвий рельефа (при пoдъёме на 10 м давление пoнижается примернo на 1 мм рт.ст.).